Time,TemperatureF,DewpointF,PressureIn,WindDirection,WindDirectionDegrees,WindSpeedMPH,WindSpeedGustMPH,Humidity,HourlyPrecipIn,Conditions,Clouds,dailyrainin,SoftwareType,DateUTC
2013-11-30 00:04:00,42.5,39.7,30.22,East,83,0.0,1.0,90,0.00,,,0.00,WUHU216DAVISVP2,2013-11-30 08:04:00,
2013-11-30 00:09:00,42.5,39.7,30.22,East,83,2.0,2.0,90,0.00,,,0.00,WUHU216DAVISVP2,2013-11-30 08:09:00,
2013-11-30 00:14:00,42.5,40.0,30.22,East,83,0.0,2.0,91,0.00,,,0.00,WUHU216DAVISVP2,2013-11-30 08:14:00,
2013-11-30 00:19:00,42.5,40.0,30.22,East,83,0.0,2.0,91,0.00,,,0.00,WUHU216DAVISVP2,2013-11-30 08:19:00,
2013-11-30 00:24:00,42.5,40.0,30.22,East,83,0.0,0.0,91,0.00,,,0.00,WUHU216DAVISVP2,2013-11-30 08:24:00,
2013-11-30 00:29:00,42.5,40.0,30.22,East,83,0.0,0.0,91,0.00,,,0.00,WUHU216DAVISVP2,2013-11-30 08:29:00,
2013-11-30 00:34:00,42.4,39.9,30.22,East,83,0.0,0.0,91,0.00,,,0.00,WUHU216DAVISVP2,2013-11-30 08:34:00,
2013-11-30 00:39:00,42.3,39.8,30.22,East,83,0.0,0.0,91,0.00,,,0.00,WUHU216DAVISVP2,2013-11-30 08:39:00,
2013-11-30 00:44:00,42.2,39.7,30.22,East,83,0.0,0.0,91,0.00,,,0.00,WUHU216DAVISVP2,2013-11-30 08:44:00,
2013-11-30 00:49:00,42.1,39.6,30.22,East,83,0.0,0.0,91,0.00,,,0.00,WUHU216DAVISVP2,2013-11-30 08:49:00,
2013-11-30 00:54:00,41.9,39.4,30.22,East,83,0.0,0.0,91,0.00,,,0.00,WUHU216DAVISVP2,2013-11-30 08:54:00,
2013-11-30 00:59:00,41.8,39.0,30.22,East,83,0.0,0.0,90,0.00,,,0.00,WUHU216DAVISVP2,2013-11-30 08:59:00,
2013-11-30 01:04:00,41.6,38.9,30.22,East,83,0.0,0.0,90,0.00,,,0.00,WUHU216DAVISVP2,2013-11-30 09:04:00,
2013-11-30 01:09:00,41.5,38.8,30.22,East,83,0.0,0.0,90,0.00,,,0.00,WUHU216DAVISVP2,2013-11-30 09:09:00,
2013-11-30 01:14:00,41.4,38.9,30.22,East,83,0.0,2.0,91,0.00,,,0.00,WUHU216DAVISVP2,2013-11-30 09:14:00,
2013-11-30 01:19:00,41.4,38.9,30.22,East,83,0.0,2.0,91,0.00,,,0.00,WUHU216DAVISVP2,2013-11-30 09:19:00,
2013-11-30 01:24:00,41.4,38.9,30.22,East,83,0.0,0.0,91,0.00,,,0.00,WUHU216DAVISVP2,2013-11-30 09:24:00,
2013-11-30 01:29:00,41.4,38.9,30.22,East,83,0.0,0.0,91,0.00,,,0.00,WUHU216DAVISVP2,2013-11-30 09:29:00,
2013-11-30 01:34:00,41.3,38.9,30.22,East,83,0.0,0.0,91,0.00,,,0.00,WUHU216DAVISVP2,2013-11-30 09:34:00,
2013-11-30 01:39:00,41.2,38.8,30.22,East,83,0.0,0.0,91,0.00,,,0.00,WUHU216DAVISVP2,2013-11-30 09:39:00,
2013-11-30 01:44:00,41.1,38.6,30.22,East,83,0.0,0.0,91,0.00,,,0.00,WUHU216DAVISVP2,2013-11-30 09:44:00,
2013-11-30 01:49:00,41.1,38.6,30.22,East,83,0.0,0.0,91,0.00,,,0.00,WUHU216DAVISVP2,2013-11-30 09:49:00,
2013-11-30 01:54:00,41.0,38.5,30.23,East,83,0.0,0.0,91,0.00,,,0.00,WUHU216DAVISVP2,2013-11-30 09:54:00,
2013-11-30 01:59:00,41.0,38.5,30.23,East,83,0.0,0.0,91,0.00,,,0.00,WUHU216DAVISVP2,2013-11-30 09:59:00,
2013-11-30 02:04:00,40.8,38.3,30.23,East,83,0.0,0.0,91,0.00,,,0.00,WUHU216DAVISVP2,2013-11-30 10:04:00,
2013-11-30 02:09:00,40.7,38.2,30.23,East,83,0.0,1.0,91,0.00,,,0.00,WUHU216DAVISVP2,2013-11-30 10:09:00,
2013-11-30 02:14:00,40.7,38.2,30.23,East,83,0.0,1.0,91,0.00,,,0.00,WUHU216DAVISVP2,2013-11-30 10:14:00,
2013-11-30 02:19:00,40.6,38.1,30.23,East,83,0.0,1.0,91,0.00,,,0.00,WUHU216DAVISVP2,2013-11-30 10:19:00,
2013-11-30 02:24:00,40.6,38.1,30.24,East,83,0.0,0.0,91,0.00,,,0.00,WUHU216DAVISVP2,2013-11-30 10:24:00,
2013-11-30 02:29:00,40.5,38.0,30.23,East,83,0.0,2.0,91,0.00,,,0.00,WUHU216DAVISVP2,2013-11-30 10:29:00,
2013-11-30 02:34:00,40.5,38.0,30.23,East,83,0.0,2.0,91,0.00,,,0.00,WUHU216DAVISVP2,2013-11-30 10:34:00,
2013-11-30 02:39:00,40.4,38.2,30.23,East,83,0.0,0.0,92,0.00,,,0.00,WUHU216DAVISVP2,2013-11-30 10:39:00,
2013-11-30 02:44:00,40.4,38.2,30.23,East,83,0.0,0.0,92,0.00,,,0.00,WUHU216DAVISVP2,2013-11-30 10:44:00,
2013-11-30 02:49:00,40.3,37.8,30.23,East,83,0.0,0.0,91,0.00,,,0.00,WUHU216DAVISVP2,2013-11-30 10:49:00,
2013-11-30 02:54:00,40.3,37.8,30.23,East,83,0.0,0.0,91,0.00,,,0.00,WUHU216DAVISVP2,2013-11-30 10:54:00,
2013-11-30 02:59:00,40.2,37.7,30.23,East,83,0.0,0.0,91,0.00,,,0.00,WUHU216DAVISVP2,2013-11-30 10:59:00,
2013-11-30 03:04:00,40.1,37.6,30.23,East,83,0.0,0.0,91,0.00,,,0.00,WUHU216DAVISVP2,2013-11-30 11:04:00,
2013-11-30 03:09:00,40.0,37.5,30.23,East,83,0.0,0.0,91,0.00,,,0.00,WUHU216DAVISVP2,2013-11-30 11:09:00,
2013-11-30 03:14:00,40.0,37.8,30.23,East,83,0.0,0.0,92,0.00,,,0.00,WUHU216DAVISVP2,2013-11-30 11:14:00,
2013-11-30 03:19:00,40.0,37.8,30.23,East,83,0.0,0.0,92,0.00,,,0.00,WUHU216DAVISVP2,2013-11-30 11:19:00,
2013-11-30 03:24:00,39.9,37.7,30.23,East,83,0.0,0.0,92,0.00,,,0.00,WUHU216DAVISVP2,2013-11-30 11:24:00,
2013-11-30 03:29:00,39.8,37.7,30.23,East,83,0.0,0.0,92,0.00,,,0.00,WUHU216DAVISVP2,2013-11-30 11:29:00,
2013-11-30 03:34:00,39.7,37.3,30.22,East,83,0.0,0.0,91,0.00,,,0.00,WUHU216DAVISVP2,2013-11-30 11:34:00,
2013-11-30 03:39:00,39.7,37.3,30.22,East,83,0.0,0.0,91,0.00,,,0.00,WUHU216DAVISVP2,2013-11-30 11:39:00,
2013-11-30 03:44:00,39.6,37.1,30.22,East,83,0.0,0.0,91,0.00,,,0.00,WUHU216DAVISVP2,2013-11-30 11:44:00,
2013-11-30 03:49:00,39.4,36.9,30.22,East,83,0.0,2.0,91,0.00,,,0.00,WUHU216DAVISVP2,2013-11-30 11:49:00,
2013-11-30 03:54:00,39.2,36.7,30.22,East,83,0.0,2.0,91,0.00,,,0.00,WUHU216DAVISVP2,2013-11-30 11:54:00,
2013-11-30 03:59:00,39.2,36.7,30.22,East,83,0.0,0.0,91,0.00,,,0.00,WUHU216DAVISVP2,2013-11-30 11:59:00,
2013-11-30 04:04:00,39.1,36.9,30.22,East,83,0.0,0.0,92,0.00,,,0.00,WUHU216DAVISVP2,2013-11-30 12:04:00,
2013-11-30 04:09:00,39.1,36.9,30.22,East,83,0.0,0.0,92,0.00,,,0.00,WUHU216DAVISVP2,2013-11-30 12:09:00,
2013-11-30 04:14:00,39.0,36.8,30.22,East,83,0.0,0.0,92,0.00,,,0.00,WUHU216DAVISVP2,2013-11-30 12:14:00,
2013-11-30 04:19:00,39.1,37.0,30.22,East,83,0.0,0.0,92,0.00,,,0.00,WUHU216DAVISVP2,2013-11-30 12:19:00,
2013-11-30 04:24:00,38.9,36.8,30.22,East,83,0.0,0.0,92,0.00,,,0.00,WUHU216DAVISVP2,2013-11-30 12:24:00,
2013-11-30 04:29:00,38.9,36.7,30.22,East,83,0.0,0.0,92,0.00,,,0.00,WUHU216DAVISVP2,2013-11-30 12:29:00,
2013-11-30 04:34:00,38.9,36.7,30.22,East,83,0.0,0.0,92,0.00,,,0.00,WUHU216DAVISVP2,2013-11-30 12:34:00,
2013-11-30 04:39:00,38.8,36.6,30.22,East,83,0.0,0.0,92,0.00,,,0.00,WUHU216DAVISVP2,2013-11-30 12:39:00,
2013-11-30 04:44:00,38.8,36.6,30.23,East,83,0.0,0.0,92,0.00,,,0.00,WUHU216DAVISVP2,2013-11-30 12:44:00,
2013-11-30 04:49:00,38.7,36.5,30.23,East,83,0.0,0.0,92,0.00,,,0.00,WUHU216DAVISVP2,2013-11-30 12:49:00,
2013-11-30 04:54:00,38.7,36.5,30.23,East,83,0.0,0.0,92,0.00,,,0.00,WUHU216DAVISVP2,2013-11-30 12:54:00,
2013-11-30 04:59:00,38.7,36.5,30.23,East,83,0.0,0.0,92,0.00,,,0.00,WUHU216DAVISVP2,2013-11-30 12:59:00,
2013-11-30 05:04:00,38.7,36.8,30.23,East,83,0.0,0.0,93,0.00,,,0.00,WUHU216DAVISVP2,2013-11-30 13:04:00,
2013-11-30 05:09:00,38.8,36.9,30.23,East,83,0.0,1.0,93,0.00,,,0.00,WUHU216DAVISVP2,2013-11-30 13:09:00,
2013-11-30 05:14:00,38.7,36.8,30.23,East,83,0.0,2.0,93,0.00,,,0.00,WUHU216DAVISVP2,2013-11-30 13:14:00,
2013-11-30 05:19:00,38.8,36.9,30.23,East,83,0.0,2.0,93,0.00,,,0.00,WUHU216DAVISVP2,2013-11-30 13:19:00,
2013-11-30 05:24:00,38.9,37.0,30.23,East,83,0.0,0.0,93,0.00,,,0.00,WUHU216DAVISVP2,2013-11-30 13:24:00,
2013-11-30 05:29:00,39.0,37.1,30.23,East,83,0.0,0.0,93,0.00,,,0.00,WUHU216DAVISVP2,2013-11-30 13:29:00,
2013-11-30 05:34:00,39.0,37.1,30.23,East,83,0.0,0.0,93,0.00,,,0.00,WUHU216DAVISVP2,2013-11-30 13:34:00,
2013-11-30 05:39:00,39.0,37.1,30.24,East,83,0.0,0.0,93,0.00,,,0.00,WUHU216DAVISVP2,2013-11-30 13:39:00,
2013-11-30 05:44:00,39.0,37.1,30.23,East,83,0.0,0.0,93,0.00,,,0.00,WUHU216DAVISVP2,2013-11-30 13:44:00,
2013-11-30 05:49:00,39.0,37.1,30.24,East,83,0.0,0.0,93,0.00,,,0.00,WUHU216DAVISVP2,2013-11-30 13:49:00,
2013-11-30 05:54:00,38.9,37.0,30.24,East,83,0.0,0.0,93,0.00,,,0.00,WUHU216DAVISVP2,2013-11-30 13:54:00,
2013-11-30 05:59:00,38.9,37.0,30.24,East,83,0.0,1.0,93,0.00,,,0.00,WUHU216DAVISVP2,2013-11-30 13:59:00,
2013-11-30 06:04:00,38.8,36.9,30.24,East,83,0.0,1.0,93,0.00,,,0.00,WUHU216DAVISVP2,2013-11-30 14:04:00,
2013-11-30 06:09:00,38.8,36.9,30.24,East,83,0.0,0.0,93,0.00,,,0.00,WUHU216DAVISVP2,2013-11-30 14:09:00,
2013-11-30 06:14:00,38.8,36.9,30.25,East,83,0.0,0.0,93,0.00,,,0.00,WUHU216DAVISVP2,2013-11-30 14:14:00,
2013-11-30 06:19:00,38.8,36.9,30.25,East,83,0.0,0.0,93,0.00,,,0.00,WUHU216DAVISVP2,2013-11-30 14:19:00,
2013-11-30 06:24:00,38.8,36.9,30.25,East,83,0.0,0.0,93,0.00,,,0.00,WUHU216DAVISVP2,2013-11-30 14:24:00,
2013-11-30 06:29:00,38.7,36.8,30.25,East,83,0.0,0.0,93,0.00,,,0.00,WUHU216DAVISVP2,2013-11-30 14:29:00,
2013-11-30 06:34:00,38.7,36.9,30.25,East,83,0.0,0.0,93,0.00,,,0.00,WUHU216DAVISVP2,2013-11-30 14:34:00,
2013-11-30 06:39:00,38.7,36.9,30.25,East,83,0.0,0.0,93,0.00,,,0.00,WUHU216DAVISVP2,2013-11-30 14:39:00,
2013-11-30 06:44:00,38.6,36.8,30.25,East,83,0.0,0.0,93,0.00,,,0.00,WUHU216DAVISVP2,2013-11-30 14:44:00,
2013-11-30 06:49:00,38.5,36.6,30.26,East,83,0.0,0.0,93,0.00,,,0.00,WUHU216DAVISVP2,2013-11-30 14:49:00,
2013-11-30 06:54:00,38.5,36.6,30.26,East,83,0.0,0.0,93,0.00,,,0.00,WUHU216DAVISVP2,2013-11-30 14:54:00,
2013-11-30 06:59:00,38.4,36.5,30.26,East,83,0.0,0.0,93,0.00,,,0.00,WUHU216DAVISVP2,2013-11-30 14:59:00,
2013-11-30 07:04:00,38.3,36.4,30.26,East,83,0.0,0.0,93,0.00,,,0.00,WUHU216DAVISVP2,2013-11-30 15:04:00,
2013-11-30 07:09:00,38.2,36.3,30.26,East,83,0.0,0.0,93,0.00,,,0.00,WUHU216DAVISVP2,2013-11-30 15:09:00,
2013-11-30 07:14:00,38.2,36.3,30.26,East,83,0.0,0.0,93,0.00,,,0.00,WUHU216DAVISVP2,2013-11-30 15:14:00,
2013-11-30 07:19:00,38.2,36.3,30.26,East,83,0.0,0.0,93,0.00,,,0.00,WUHU216DAVISVP2,2013-11-30 15:19:00,
2013-11-30 07:24:00,38.1,36.2,30.26,East,83,0.0,0.0,93,0.00,,,0.00,WUHU216DAVISVP2,2013-11-30 15:24:00,
2013-11-30 07:29:00,38.0,36.1,30.26,East,83,0.0,0.0,93,0.00,,,0.00,WUHU216DAVISVP2,2013-11-30 15:29:00,
2013-11-30 07:34:00,38.0,36.1,30.26,East,83,0.0,0.0,93,0.00,,,0.00,WUHU216DAVISVP2,2013-11-30 15:34:00,
2013-11-30 07:39:00,38.0,36.1,30.26,East,83,0.0,0.0,93,0.00,,,0.00,WUHU216DAVISVP2,2013-11-30 15:39:00,
2013-11-30 07:44:00,38.1,36.2,30.26,East,83,0.0,0.0,93,0.00,,,0.00,WUHU216DAVISVP2,2013-11-30 15:44:00,
2013-11-30 07:49:00,38.3,36.7,30.27,East,83,0.0,0.0,94,0.00,,,0.00,WUHU216DAVISVP2,2013-11-30 15:49:00,
2013-11-30 07:54:00,38.7,37.1,30.27,East,83,0.0,0.0,94,0.00,,,0.00,WUHU216DAVISVP2,2013-11-30 15:54:00,
2013-11-30 07:59:00,39.3,37.7,30.27,East,83,0.0,0.0,94,0.00,,,0.00,WUHU216DAVISVP2,2013-11-30 15:59:00,
2013-11-30 08:04:00,39.8,38.4,30.27,East,83,0.0,0.0,95,0.00,,,0.00,WUHU216DAVISVP2,2013-11-30 16:04:00,
2013-11-30 08:09:00,40.2,38.8,30.27,East,83,0.0,0.0,95,0.00,,,0.00,WUHU216DAVISVP2,2013-11-30 16:09:00,
2013-11-30 08:14:00,40.8,39.4,30.27,East,83,0.0,1.0,95,0.00,,,0.00,WUHU216DAVISVP2,2013-11-30 16:14:00,
2013-11-30 08:19:00,41.5,40.1,30.27,East,83,0.0,1.0,95,0.00,,,0.00,WUHU216DAVISVP2,2013-11-30 16:19:00,
2013-11-30 08:24:00,42.2,40.8,30.27,East,83,0.0,3.0,95,0.00,,,0.00,WUHU216DAVISVP2,2013-11-30 16:24:00,
2013-11-30 08:29:00,42.8,41.7,30.27,East,83,0.0,3.0,96,0.00,,,0.00,WUHU216DAVISVP2,2013-11-30 16:29:00,
2013-11-30 08:34:00,43.6,42.5,30.27,East,83,0.0,2.0,96,0.00,,,0.00,WUHU216DAVISVP2,2013-11-30 16:34:00,
2013-11-30 08:39:00,44.1,43.0,30.27,East,83,0.0,1.0,96,0.00,,,0.00,WUHU216DAVISVP2,2013-11-30 16:39:00,
2013-11-30 08:44:00,44.5,43.4,30.27,East,83,0.0,0.0,96,0.00,,,0.00,WUHU216DAVISVP2,2013-11-30 16:44:00,
2013-11-30 08:49:00,45.3,44.2,30.28,East,83,0.0,0.0,96,0.00,,,0.00,WUHU216DAVISVP2,2013-11-30 16:49:00,
2013-11-30 08:54:00,45.9,44.8,30.28,East,83,0.0,0.0,96,0.00,,,0.00,WUHU216DAVISVP2,2013-11-30 16:54:00,
2013-11-30 08:59:00,47.0,45.6,30.28,East,83,0.0,0.0,95,0.00,,,0.00,WUHU216DAVISVP2,2013-11-30 16:59:00,
2013-11-30 09:04:00,48.1,45.3,30.28,East,83,0.0,0.0,90,0.00,,,0.00,WUHU216DAVISVP2,2013-11-30 17:04:00,
2013-11-30 09:09:00,48.7,45.3,30.28,East,83,0.0,0.0,88,0.00,,,0.00,WUHU216DAVISVP2,2013-11-30 17:09:00,
2013-11-30 09:14:00,48.8,44.8,30.28,East,83,0.0,0.0,86,0.00,,,0.00,WUHU216DAVISVP2,2013-11-30 17:14:00,
2013-11-30 09:19:00,49.3,45.0,30.28,East,83,0.0,1.0,85,0.00,,,0.00,WUHU216DAVISVP2,2013-11-30 17:19:00,
2013-11-30 09:24:00,50.1,45.5,30.28,East,83,0.0,1.0,84,0.00,,,0.00,WUHU216DAVISVP2,2013-11-30 17:24:00,
2013-11-30 09:29:00,50.7,45.7,30.28,East,83,0.0,2.0,83,0.00,,,0.00,WUHU216DAVISVP2,2013-11-30 17:29:00,
2013-11-30 09:34:00,51.4,45.8,30.28,East,83,0.0,2.0,81,0.00,,,0.00,WUHU216DAVISVP2,2013-11-30 17:34:00,
2013-11-30 09:39:00,51.9,46.6,30.28,East,83,1.0,3.0,82,0.00,,,0.00,WUHU216DAVISVP2,2013-11-30 17:39:00,
2013-11-30 09:44:00,52.2,46.5,30.28,East,83,0.0,3.0,81,0.00,,,0.00,WUHU216DAVISVP2,2013-11-30 17:44:00,
2013-11-30 09:49:00,52.7,46.7,30.27,East,83,0.0,2.0,80,0.00,,,0.00,WUHU216DAVISVP2,2013-11-30 17:49:00,
2013-11-30 09:54:00,52.9,46.6,30.27,East,83,0.0,1.0,79,0.00,,,0.00,WUHU216DAVISVP2,2013-11-30 17:54:00,
2013-11-30 09:59:00,53.4,47.1,30.27,East,83,0.0,0.0,79,0.00,,,0.00,WUHU216DAVISVP2,2013-11-30 17:59:00,
2013-11-30 10:04:00,54.2,47.2,30.27,East,83,0.0,3.0,77,0.00,,,0.00,WUHU216DAVISVP2,2013-11-30 18:04:00,
2013-11-30 10:09:00,54.6,47.3,30.27,East,83,0.0,3.0,76,0.00,,,0.00,WUHU216DAVISVP2,2013-11-30 18:09:00,
2013-11-30 10:14:00,55.1,47.8,30.27,East,83,0.0,2.0,76,0.00,,,0.00,WUHU216DAVISVP2,2013-11-30 18:14:00,
2013-11-30 10:19:00,55.3,47.6,30.27,East,83,0.0,2.0,75,0.00,,,0.00,WUHU216DAVISVP2,2013-11-30 18:19:00,
2013-11-30 10:24:00,55.9,47.5,30.27,East,83,0.0,1.0,73,0.00,,,0.00,WUHU216DAVISVP2,2013-11-30 18:24:00,
2013-11-30 10:29:00,56.5,47.7,30.27,East,83,0.0,1.0,72,0.00,,,0.00,WUHU216DAVISVP2,2013-11-30 18:29:00,
2013-11-30 10:34:00,57.3,48.1,30.27,East,83,0.0,1.0,71,0.00,,,0.00,WUHU216DAVISVP2,2013-11-30 18:34:00,
2013-11-30 10:39:00,56.9,47.7,30.27,East,83,0.0,0.0,71,0.00,,,0.00,WUHU216DAVISVP2,2013-11-30 18:39:00,
2013-11-30 10:44:00,57.4,48.2,30.26,East,83,0.0,2.0,71,0.00,,,0.00,WUHU216DAVISVP2,2013-11-30 18:44:00,
2013-11-30 10:49:00,57.5,48.3,30.26,East,83,0.0,3.0,71,0.00,,,0.00,WUHU216DAVISVP2,2013-11-30 18:49:00,
2013-11-30 10:54:00,57.8,48.2,30.26,East,83,0.0,3.0,70,0.00,,,0.00,WUHU216DAVISVP2,2013-11-30 18:54:00,
2013-11-30 10:59:00,57.7,47.7,30.26,East,83,0.0,0.0,69,0.00,,,0.00,WUHU216DAVISVP2,2013-11-30 18:59:00,
2013-11-30 11:04:00,58.8,48.4,30.25,East,83,0.0,0.0,68,0.00,,,0.00,WUHU216DAVISVP2,2013-11-30 19:04:00,
2013-11-30 11:09:00,59.1,48.3,30.25,East,83,0.0,0.0,67,0.00,,,0.00,WUHU216DAVISVP2,2013-11-30 19:09:00,
2013-11-30 11:14:00,59.1,48.3,30.25,East,83,0.0,1.0,67,0.00,,,0.00,WUHU216DAVISVP2,2013-11-30 19:14:00,
2013-11-30 11:19:00,59.9,49.1,30.25,East,83,0.0,1.0,67,0.00,,,0.00,WUHU216DAVISVP2,2013-11-30 19:19:00,
2013-11-30 11:24:00,60.0,48.3,30.24,East,83,0.0,0.0,65,0.00,,,0.00,WUHU216DAVISVP2,2013-11-30 19:24:00,
2013-11-30 11:29:00,60.9,49.2,30.24,East,83,0.0,0.0,65,0.00,,,0.00,WUHU216DAVISVP2,2013-11-30 19:29:00,
2013-11-30 11:34:00,60.7,49.0,30.24,East,83,0.0,0.0,65,0.00,,,0.00,WUHU216DAVISVP2,2013-11-30 19:34:00,
2013-11-30 11:39:00,61.1,49.0,30.23,East,88,2.0,4.0,64,0.00,,,0.00,WUHU216DAVISVP2,2013-11-30 19:39:00,
2013-11-30 11:44:00,61.1,49.0,30.23,East,88,0.0,4.0,64,0.00,,,0.00,WUHU216DAVISVP2,2013-11-30 19:44:00,
2013-11-30 11:49:00,61.5,48.9,30.23,East,88,0.0,3.0,63,0.00,,,0.00,WUHU216DAVISVP2,2013-11-30 19:49:00,
2013-11-30 11:54:00,62.0,49.4,30.22,East,89,0.0,0.0,63,0.00,,,0.00,WUHU216DAVISVP2,2013-11-30 19:54:00,
2013-11-30 11:59:00,62.8,49.1,30.22,East,89,0.0,1.0,61,0.00,,,0.00,WUHU216DAVISVP2,2013-11-30 19:59:00,
2013-11-30 12:04:00,63.4,49.3,30.22,East,89,0.0,1.0,60,0.00,,,0.00,WUHU216DAVISVP2,2013-11-30 20:04:00,
2013-11-30 12:09:00,63.6,49.1,30.21,East,89,0.0,0.0,59,0.00,,,0.00,WUHU216DAVISVP2,2013-11-30 20:09:00,
2013-11-30 12:14:00,62.9,48.9,30.21,East,89,0.0,0.0,60,0.00,,,0.00,WUHU216DAVISVP2,2013-11-30 20:14:00,
2013-11-30 12:19:00,63.3,48.9,30.21,SE,132,0.0,0.0,59,0.00,,,0.00,WUHU216DAVISVP2,2013-11-30 20:19:00,
2013-11-30 12:24:00,63.8,48.9,30.20,SSE,161,0.0,1.0,58,0.00,,,0.00,WUHU216DAVISVP2,2013-11-30 20:24:00,
2013-11-30 12:29:00,64.1,49.0,30.20,SSE,161,0.0,1.0,58,0.00,,,0.00,WUHU216DAVISVP2,2013-11-30 20:29:00,
2013-11-30 12:34:00,64.7,49.2,30.20,SSE,161,0.0,0.0,57,0.00,,,0.00,WUHU216DAVISVP2,2013-11-30 20:34:00,
2013-11-30 12:39:00,65.3,49.3,30.20,SSE,161,0.0,0.0,56,0.00,,,0.00,WUHU216DAVISVP2,2013-11-30 20:39:00,
2013-11-30 12:44:00,65.4,48.9,30.19,SSE,159,0.0,0.0,55,0.00,,,0.00,WUHU216DAVISVP2,2013-11-30 20:44:00,
2013-11-30 12:49:00,65.4,48.4,30.19,ESE,114,0.0,0.0,54,0.00,,,0.00,WUHU216DAVISVP2,2013-11-30 20:49:00,
2013-11-30 12:54:00,65.5,49.0,30.19,ESE,114,0.0,1.0,55,0.00,,,0.00,WUHU216DAVISVP2,2013-11-30 20:54:00,
2013-11-30 12:59:00,65.4,48.9,30.19,ESE,114,0.0,1.0,55,0.00,,,0.00,WUHU216DAVISVP2,2013-11-30 20:59:00,
2013-11-30 13:04:00,65.4,48.4,30.19,ESE,114,0.0,0.0,54,0.00,,,0.00,WUHU216DAVISVP2,2013-11-30 21:04:00,
2013-11-30 13:09:00,65.0,48.0,30.19,North,9,0.0,4.0,54,0.00,,,0.00,WUHU216DAVISVP2,2013-11-30 21:09:00,
2013-11-30 13:14:00,65.1,48.0,30.18,North,9,0.0,4.0,54,0.00,,,0.00,WUHU216DAVISVP2,2013-11-30 21:14:00,
2013-11-30 13:19:00,65.4,47.8,30.18,NNW,328,5.0,5.0,53,0.00,,,0.00,WUHU216DAVISVP2,2013-11-30 21:19:00,
2013-11-30 13:24:00,65.5,48.5,30.18,NNW,328,4.0,5.0,54,0.00,,,0.00,WUHU216DAVISVP2,2013-11-30 21:24:00,
2013-11-30 13:29:00,65.4,47.9,30.18,NNW,328,0.0,4.0,53,0.00,,,0.00,WUHU216DAVISVP2,2013-11-30 21:29:00,
2013-11-30 13:34:00,66.3,47.7,30.18,NNW,328,3.0,4.0,51,0.00,,,0.00,WUHU216DAVISVP2,2013-11-30 21:34:00,
2013-11-30 13:39:00,66.2,48.1,30.18,NNW,328,0.0,4.0,52,0.00,,,0.00,WUHU216DAVISVP2,2013-11-30 21:39:00,
2013-11-30 13:44:00,65.7,47.7,30.18,NNW,328,0.0,3.0,52,0.00,,,0.00,WUHU216DAVISVP2,2013-11-30 21:44:00,
2013-11-30 13:49:00,65.6,47.6,30.18,NNW,328,1.0,3.0,52,0.00,,,0.00,WUHU216DAVISVP2,2013-11-30 21:49:00,
2013-11-30 13:54:00,66.1,48.6,30.18,NNW,328,3.0,4.0,53,0.00,,,0.00,WUHU216DAVISVP2,2013-11-30 21:54:00,
2013-11-30 13:59:00,66.8,48.7,30.18,NNW,338,2.0,7.0,52,0.00,,,0.00,WUHU216DAVISVP2,2013-11-30 21:59:00,
2013-11-30 14:04:00,66.7,48.6,30.18,NNW,336,0.0,7.0,52,0.00,,,0.00,WUHU216DAVISVP2,2013-11-30 22:04:00,
2013-11-30 14:09:00,67.0,47.8,30.18,NNW,336,0.0,7.0,50,0.00,,,0.00,WUHU216DAVISVP2,2013-11-30 22:09:00,
2013-11-30 14:14:00,66.7,48.1,30.18,NW,306,4.0,8.0,51,0.00,,,0.00,WUHU216DAVISVP2,2013-11-30 22:14:00,
2013-11-30 14:19:00,66.8,48.7,30.18,NW,309,0.0,8.0,52,0.00,,,0.00,WUHU216DAVISVP2,2013-11-30 22:19:00,
2013-11-30 14:25:00,66.7,48.1,30.18,NW,315,3.0,6.0,51,0.00,,,0.00,WUHU216DAVISVP2,2013-11-30 22:25:00,
2013-11-30 14:30:00,66.5,48.4,30.18,NW,313,3.0,6.0,52,0.00,,,0.00,WUHU216DAVISVP2,2013-11-30 22:30:00,
2013-11-30 14:35:00,66.6,49.0,30.18,NW,313,2.0,6.0,53,0.00,,,0.00,WUHU216DAVISVP2,2013-11-30 22:35:00,
2013-11-30 14:40:00,66.8,49.2,30.18,NW,313,6.0,7.0,53,0.00,,,0.00,WUHU216DAVISVP2,2013-11-30 22:40:00,
2013-11-30 14:45:00,66.9,48.8,30.19,NW,308,7.0,9.0,52,0.00,,,0.00,WUHU216DAVISVP2,2013-11-30 22:45:00,
2013-11-30 14:50:00,66.9,48.2,30.19,NW,321,4.0,9.0,51,0.00,,,0.00,WUHU216DAVISVP2,2013-11-30 22:50:00,
2013-11-30 14:55:00,66.7,48.6,30.19,NNW,329,5.0,8.0,52,0.00,,,0.00,WUHU216DAVISVP2,2013-11-30 22:55:00,
2013-11-30 15:00:00,66.8,48.6,30.19,NNW,332,4.0,8.0,52,0.00,,,0.00,WUHU216DAVISVP2,2013-11-30 23:00:00,
2013-11-30 15:05:00,67.0,48.3,30.19,NW,313,7.0,7.0,51,0.00,,,0.00,WUHU216DAVISVP2,2013-11-30 23:05:00,
2013-11-30 15:10:00,66.8,47.6,30.19,NW,323,3.0,7.0,50,0.00,,,0.00,WUHU216DAVISVP2,2013-11-30 23:10:00,
2013-11-30 15:15:00,66.7,47.0,30.19,NNW,330,6.0,10.0,49,0.00,,,0.00,WUHU216DAVISVP2,2013-11-30 23:15:00,
2013-11-30 15:20:00,66.5,47.8,30.19,NNW,333,5.0,10.0,51,0.00,,,0.00,WUHU216DAVISVP2,2013-11-30 23:20:00,
2013-11-30 15:25:00,66.5,46.8,30.19,NW,319,6.0,9.0,49,0.00,,,0.00,WUHU216DAVISVP2,2013-11-30 23:25:00,
2013-11-30 15:30:00,66.4,47.2,30.19,NW,325,6.0,9.0,50,0.00,,,0.00,WUHU216DAVISVP2,2013-11-30 23:30:00,
2013-11-30 15:35:00,66.4,47.2,30.19,NNW,335,5.0,8.0,50,0.00,,,0.00,WUHU216DAVISVP2,2013-11-30 23:35:00,
2013-11-30 15:40:00,66.2,47.5,30.19,NNW,330,4.0,8.0,51,0.00,,,0.00,WUHU216DAVISVP2,2013-11-30 23:40:00,
2013-11-30 15:45:00,66.2,47.0,30.18,NNW,329,5.0,8.0,50,0.00,,,0.00,WUHU216DAVISVP2,2013-11-30 23:45:00,
2013-11-30 15:54:00,65.9,46.8,30.19,NNW,337,5.0,8.0,50,0.00,,,0.00,WUHU216DAVISVP2,2013-11-30 23:54:00,
2013-11-30 16:04:00,65.4,46.8,30.19,NNW,338,6.0,7.0,51,0.00,,,0.00,WUHU216DAVISVP2,2013-12-01 00:04:00,
2013-11-30 16:14:00,64.9,46.9,30.19,NNW,336,3.0,6.0,52,0.00,,,0.00,WUHU216DAVISVP2,2013-12-01 00:14:00,
2013-11-30 16:24:00,64.1,47.2,30.19,NNW,336,3.0,5.0,54,0.00,,,0.00,WUHU216DAVISVP2,2013-12-01 00:24:00,
2013-11-30 16:34:00,63.1,46.8,30.19,NNW,336,0.0,4.0,55,0.00,,,0.00,WUHU216DAVISVP2,2013-12-01 00:34:00,
2013-11-30 16:44:00,61.7,46.4,30.19,NNW,336,0.0,1.0,57,0.00,,,0.00,WUHU216DAVISVP2,2013-12-01 00:44:00,
2013-11-30 16:54:00,61.0,46.2,30.19,NNW,336,0.0,0.0,58,0.00,,,0.00,WUHU216DAVISVP2,2013-12-01 00:54:00,
2013-11-30 17:04:00,60.5,46.2,30.19,NNW,336,0.0,0.0,59,0.00,,,0.00,WUHU216DAVISVP2,2013-12-01 01:04:00,
2013-11-30 17:14:00,60.0,46.2,30.19,NNW,336,0.0,0.0,60,0.00,,,0.00,WUHU216DAVISVP2,2013-12-01 01:14:00,
2013-11-30 17:24:00,59.6,46.3,30.19,NNW,336,0.0,0.0,61,0.00,,,0.00,WUHU216DAVISVP2,2013-12-01 01:24:00,
2013-11-30 17:29:00,59.4,46.1,30.19,NNW,336,0.0,0.0,61,0.00,,,0.00,WUHU216DAVISVP2,2013-12-01 01:29:00,
2013-11-30 17:34:00,59.0,46.1,30.19,NNW,336,0.0,0.0,62,0.00,,,0.00,WUHU216DAVISVP2,2013-12-01 01:34:00,
2013-11-30 17:39:00,58.5,45.7,30.19,NNW,336,0.0,0.0,62,0.00,,,0.00,WUHU216DAVISVP2,2013-12-01 01:39:00,
2013-11-30 17:44:00,58.1,45.7,30.19,NNW,336,0.0,0.0,63,0.00,,,0.00,WUHU216DAVISVP2,2013-12-01 01:44:00,
2013-11-30 17:49:00,58.0,45.6,30.19,NNW,336,0.0,0.0,63,0.00,,,0.00,WUHU216DAVISVP2,2013-12-01 01:49:00,
2013-11-30 17:54:00,57.6,45.6,30.19,NNW,336,0.0,0.0,64,0.00,,,0.00,WUHU216DAVISVP2,2013-12-01 01:54:00,
2013-11-30 17:59:00,57.2,45.7,30.20,NNW,336,0.0,0.0,65,0.00,,,0.00,WUHU216DAVISVP2,2013-12-01 01:59:00,
2013-11-30 18:04:00,56.8,45.7,30.20,NNW,336,0.0,0.0,66,0.00,,,0.00,WUHU216DAVISVP2,2013-12-01 02:04:00,
2013-11-30 18:13:00,55.9,45.2,30.21,NNW,336,0.0,1.0,67,0.00,,,0.00,WUHU216DAVISVP2,2013-12-01 02:13:00,
2013-11-30 18:23:00,55.7,45.0,30.21,NNW,336,0.0,2.0,67,0.00,,,0.00,WUHU216DAVISVP2,2013-12-01 02:23:00,
2013-11-30 18:28:00,55.5,45.2,30.20,NNW,336,0.0,0.0,68,0.00,,,0.00,WUHU216DAVISVP2,2013-12-01 02:28:00,
2013-11-30 18:33:00,55.1,45.2,30.20,NNW,336,2.0,3.0,69,0.00,,,0.00,WUHU216DAVISVP2,2013-12-01 02:33:00,
2013-11-30 18:38:00,54.6,45.0,30.20,NNW,336,0.0,3.0,70,0.00,,,0.00,WUHU216DAVISVP2,2013-12-01 02:38:00,
2013-11-30 18:43:00,54.3,44.7,30.21,NNW,336,0.0,2.0,70,0.00,,,0.00,WUHU216DAVISVP2,2013-12-01 02:43:00,
2013-11-30 18:48:00,54.1,44.6,30.21,NNW,336,0.0,2.0,70,0.00,,,0.00,WUHU216DAVISVP2,2013-12-01 02:48:00,
2013-11-30 18:53:00,53.9,44.5,30.21,NNW,336,0.0,2.0,70,0.00,,,0.00,WUHU216DAVISVP2,2013-12-01 02:53:00,
2013-11-30 18:58:00,53.7,44.6,30.21,NNW,336,0.0,1.0,71,0.00,,,0.00,WUHU216DAVISVP2,2013-12-01 02:58:00,
2013-11-30 19:03:00,53.5,44.8,30.22,NNW,336,0.0,1.0,72,0.00,,,0.00,WUHU216DAVISVP2,2013-12-01 03:03:00,
2013-11-30 19:08:00,53.2,44.9,30.22,NNW,336,0.0,2.0,73,0.00,,,0.00,WUHU216DAVISVP2,2013-12-01 03:08:00,
2013-11-30 19:13:00,53.0,44.7,30.22,NNW,336,0.0,2.0,73,0.00,,,0.00,WUHU216DAVISVP2,2013-12-01 03:13:00,
2013-11-30 19:18:00,52.7,44.6,30.22,NNW,336,0.0,3.0,74,0.00,,,0.00,WUHU216DAVISVP2,2013-12-01 03:18:00,
2013-11-30 19:23:00,52.6,44.6,30.22,NNW,336,0.0,3.0,74,0.00,,,0.00,WUHU216DAVISVP2,2013-12-01 03:23:00,
2013-11-30 19:28:00,52.5,44.2,30.22,NNW,336,0.0,0.0,73,0.00,,,0.00,WUHU216DAVISVP2,2013-12-01 03:28:00,
2013-11-30 19:33:00,52.4,44.4,30.23,NNW,336,0.0,0.0,74,0.00,,,0.00,WUHU216DAVISVP2,2013-12-01 03:33:00,
2013-11-30 19:38:00,52.2,44.2,30.23,NNW,336,0.0,0.0,74,0.00,,,0.00,WUHU216DAVISVP2,2013-12-01 03:38:00,
2013-11-30 19:43:00,52.0,44.1,30.23,NNW,336,0.0,0.0,74,0.00,,,0.00,WUHU216DAVISVP2,2013-12-01 03:43:00,
2013-11-30 19:48:00,51.9,44.0,30.23,NNW,336,0.0,0.0,74,0.00,,,0.00,WUHU216DAVISVP2,2013-12-01 03:48:00,
2013-11-30 19:53:00,51.7,43.7,30.23,NNW,336,0.0,0.0,74,0.00,,,0.00,WUHU216DAVISVP2,2013-12-01 03:53:00,
2013-11-30 19:58:00,51.4,44.1,30.23,NNW,336,0.0,0.0,76,0.00,,,0.00,WUHU216DAVISVP2,2013-12-01 03:58:00,
2013-11-30 20:03:00,51.2,43.9,30.24,NNW,336,2.0,3.0,76,0.00,,,0.00,WUHU216DAVISVP2,2013-12-01 04:03:00,
2013-11-30 20:08:00,51.0,44.1,30.24,NNW,336,0.0,3.0,77,0.00,,,0.00,WUHU216DAVISVP2,2013-12-01 04:08:00,
2013-11-30 20:13:00,50.9,44.0,30.24,NNW,336,0.0,3.0,77,0.00,,,0.00,WUHU216DAVISVP2,2013-12-01 04:13:00,
2013-11-30 20:18:00,50.8,43.9,30.25,NNW,336,0.0,2.0,77,0.00,,,0.00,WUHU216DAVISVP2,2013-12-01 04:18:00,
2013-11-30 20:23:00,50.7,43.8,30.25,NNW,336,0.0,0.0,77,0.00,,,0.00,WUHU216DAVISVP2,2013-12-01 04:23:00,
2013-11-30 20:28:00,50.6,44.0,30.25,NNW,336,0.0,0.0,78,0.00,,,0.00,WUHU216DAVISVP2,2013-12-01 04:28:00,
2013-11-30 20:33:00,50.5,43.6,30.24,NNW,336,0.0,0.0,77,0.00,,,0.00,WUHU216DAVISVP2,2013-12-01 04:33:00,
2013-11-30 20:38:00,50.3,43.7,30.25,NNW,336,0.0,0.0,78,0.00,,,0.00,WUHU216DAVISVP2,2013-12-01 04:38:00,
2013-11-30 20:43:00,50.2,43.6,30.25,NNW,336,0.0,0.0,78,0.00,,,0.00,WUHU216DAVISVP2,2013-12-01 04:43:00,
2013-11-30 20:49:00,50.0,43.7,30.25,NNW,336,1.0,2.0,79,0.00,,,0.00,WUHU216DAVISVP2,2013-12-01 04:49:00,
2013-11-30 20:54:00,49.8,43.5,30.25,NNW,336,0.0,2.0,79,0.00,,,0.00,WUHU216DAVISVP2,2013-12-01 04:54:00,
2013-11-30 20:59:00,49.6,43.4,30.25,NNW,336,1.0,2.0,79,0.00,,,0.00,WUHU216DAVISVP2,2013-12-01 04:59:00,
2013-11-30 21:04:00,49.3,43.1,30.25,NNW,336,0.0,2.0,79,0.00,,,0.00,WUHU216DAVISVP2,2013-12-01 05:04:00,
2013-11-30 21:09:00,49.2,43.0,30.25,NNW,336,0.0,2.0,79,0.00,,,0.00,WUHU216DAVISVP2,2013-12-01 05:09:00,
2013-11-30 21:14:00,49.1,42.9,30.25,NNW,336,0.0,0.0,79,0.00,,,0.00,WUHU216DAVISVP2,2013-12-01 05:14:00,
2013-11-30 21:19:00,49.0,42.8,30.25,NNW,336,0.0,0.0,79,0.00,,,0.00,WUHU216DAVISVP2,2013-12-01 05:19:00,
2013-11-30 21:24:00,48.8,42.6,30.25,NNW,336,0.0,0.0,79,0.00,,,0.00,WUHU216DAVISVP2,2013-12-01 05:24:00,
2013-11-30 21:29:00,48.5,42.6,30.25,NNW,336,0.0,0.0,80,0.00,,,0.00,WUHU216DAVISVP2,2013-12-01 05:29:00,
2013-11-30 21:34:00,48.3,42.4,30.25,NNW,336,0.0,0.0,80,0.00,,,0.00,WUHU216DAVISVP2,2013-12-01 05:34:00,
2013-11-30 21:39:00,48.1,42.2,30.25,NNW,336,0.0,0.0,80,0.00,,,0.00,WUHU216DAVISVP2,2013-12-01 05:39:00,
2013-11-30 21:44:00,47.8,41.9,30.25,NNW,336,0.0,0.0,80,0.00,,,0.00,WUHU216DAVISVP2,2013-12-01 05:44:00,
2013-11-30 21:49:00,47.7,41.8,30.25,NNW,336,0.0,0.0,80,0.00,,,0.00,WUHU216DAVISVP2,2013-12-01 05:49:00,
2013-11-30 21:54:00,47.5,42.0,30.25,NNW,336,0.0,0.0,81,0.00,,,0.00,WUHU216DAVISVP2,2013-12-01 05:54:00,
2013-11-30 21:59:00,47.4,41.9,30.25,NNW,336,0.0,0.0,81,0.00,,,0.00,WUHU216DAVISVP2,2013-12-01 05:59:00,
2013-11-30 22:04:00,47.2,41.7,30.25,NNW,336,0.0,0.0,81,0.00,,,0.00,WUHU216DAVISVP2,2013-12-01 06:04:00,
2013-11-30 22:09:00,47.0,41.8,30.25,NNW,336,0.0,0.0,82,0.00,,,0.00,WUHU216DAVISVP2,2013-12-01 06:09:00,
2013-11-30 22:14:00,46.9,42.0,30.25,NNW,336,0.0,0.0,83,0.00,,,0.00,WUHU216DAVISVP2,2013-12-01 06:14:00,
2013-11-30 22:19:00,46.8,41.9,30.25,NNW,336,0.0,0.0,83,0.00,,,0.00,WUHU216DAVISVP2,2013-12-01 06:19:00,
2013-11-30 22:24:00,46.6,41.7,30.26,NNW,336,2.0,2.0,83,0.00,,,0.00,WUHU216DAVISVP2,2013-12-01 06:24:00,
2013-11-30 22:29:00,46.5,41.6,30.26,NNW,336,0.0,2.0,83,0.00,,,0.00,WUHU216DAVISVP2,2013-12-01 06:29:00,
2013-11-30 22:34:00,46.4,41.5,30.25,NNW,336,0.0,2.0,83,0.00,,,0.00,WUHU216DAVISVP2,2013-12-01 06:34:00,
2013-11-30 22:44:00,46.3,41.7,30.26,NNW,336,0.0,0.0,84,0.00,,,0.00,WUHU216DAVISVP2,2013-12-01 06:44:00,
2013-11-30 22:49:00,46.2,41.6,30.25,NNW,336,0.0,0.0,84,0.00,,,0.00,WUHU216DAVISVP2,2013-12-01 06:49:00,
2013-11-30 22:54:00,46.2,41.6,30.26,NNW,336,0.0,0.0,84,0.00,,,0.00,WUHU216DAVISVP2,2013-12-01 06:54:00,
2013-11-30 22:59:00,46.1,41.8,30.26,NNW,336,0.0,0.0,85,0.00,,,0.00,WUHU216DAVISVP2,2013-12-01 06:59:00,
2013-11-30 23:04:00,46.0,41.7,30.26,NNW,336,0.0,0.0,85,0.00,,,0.00,WUHU216DAVISVP2,2013-12-01 07:04:00,
2013-11-30 23:09:00,45.9,41.6,30.26,NNW,336,0.0,0.0,85,0.00,,,0.00,WUHU216DAVISVP2,2013-12-01 07:09:00,
2013-11-30 23:14:00,45.7,41.4,30.26,NNW,336,0.0,0.0,85,0.00,,,0.00,WUHU216DAVISVP2,2013-12-01 07:14:00,
2013-11-30 23:19:00,45.6,41.4,30.26,NNW,336,0.0,0.0,85,0.00,,,0.00,WUHU216DAVISVP2,2013-12-01 07:19:00,
2013-11-30 23:24:00,45.5,41.3,30.26,NNW,336,0.0,0.0,85,0.00,,,0.00,WUHU216DAVISVP2,2013-12-01 07:24:00,
2013-11-30 23:29:00,45.3,41.1,30.26,NNW,348,0.0,4.0,85,0.00,,,0.00,WUHU216DAVISVP2,2013-12-01 07:29:00,
2013-11-30 23:34:00,45.2,41.0,30.26,NNW,348,0.0,4.0,85,0.00,,,0.00,WUHU216DAVISVP2,2013-12-01 07:34:00,
2013-11-30 23:39:00,45.1,41.2,30.27,NNW,348,0.0,3.0,86,0.00,,,0.00,WUHU216DAVISVP2,2013-12-01 07:39:00,
2013-11-30 23:44:00,44.9,40.9,30.26,NNW,348,0.0,0.0,86,0.00,,,0.00,WUHU216DAVISVP2,2013-12-01 07:44:00,
2013-11-30 23:49:00,44.8,40.8,30.26,NNW,348,0.0,0.0,86,0.00,,,0.00,WUHU216DAVISVP2,2013-12-01 07:49:00,
2013-11-30 23:54:00,44.7,40.7,30.26,NNW,348,0.0,0.0,86,0.00,,,0.00,WUHU216DAVISVP2,2013-12-01 07:54:00,
2013-11-30 23:59:00,44.6,40.7,30.26,NNW,348,0.0,0.0,86,0.00,,,0.00,WUHU216DAVISVP2,2013-12-01 07:59:00,